[Iaude] MPEC F67: 2024 FD2 [a=2.63,e=0.56,i=11.5,H=22.1]
    mpec at cfa.harvard.edu 
    mpec at cfa.harvard.edu
       
    Fri Mar 22 00:47:57 EDT 2024
    
    
  
M.P.E.C. 2024-F67                                Issued 2024 March 22, 04:46 UT
     The Minor Planet Electronic Circulars contain information on unusual
         minor planets, routine data on comets and natural satellites,
         and occasional editorial announcements.  They are published
    on behalf of Division F of the International Astronomical Union by the
          Minor Planet Center, Smithsonian Astrophysical Observatory,
                          Cambridge, MA 02138, U.S.A.
			  
             Prepared using the Tamkin Foundation Computer Network
                              MPC at CFA.HARVARD.EDU
            URL https://www.minorplanetcenter.net/    ISSN 1523-6714
                                    2024 FD2                                    
Observations:
     K24F02D*1C2024 03 19.31137714 09 25.931+24 12 18.65         20.83GVEF067G96
     K24F02D 1C2024 03 19.31654014 09 27.371+24 12 28.48         20.14GVEF067G96
     K24F02D 1C2024 03 19.32170114 09 28.786+24 12 38.45         20.05GVEF067G96
     K24F02D KC2024 03 19.39291 14 09 47.837+24 14 49.60         19.8 GVEF067H36
     K24F02D KC2024 03 19.41044 14 09 52.637+24 15 24.91         20.3 GVEF067H36
     K24F02D KC2024 03 19.42878414 09 58.381+24 16 03.25         20.23GVEF067I52
     K24F02D KC2024 03 19.43003214 09 58.723+24 16 05.48         19.87GVEF067I52
     K24F02D KC2024 03 19.43127714 09 59.072+24 16 08.00         19.83GVEF067I52
     K24F02D KC2024 03 19.43252214 09 59.400+24 16 10.06         19.92GVEF067I52
     K24F02D KB2024 03 20.09174214 13 11.006+24 36 27.97         20.2 GXEF067C95
     K24F02D KB2024 03 20.09987814 13 13.188+24 36 42.52         20.1 GXEF067C95
     K24F02D KB2024 03 20.10523 14 13 15.69 +24 37 03.6          20.8 VqEF067Y66
     K24F02D KB2024 03 20.10643 14 13 16.02 +24 37 05.4          20.6 VqEF067Y66
     K24F02D KB2024 03 20.10756 14 13 16.34 +24 37 07.3          20.6 VqEF067Y66
     K24F02D KB2024 03 20.11250014 13 16.663+24 37 05.27         20.3 GXEF067C95
     K24F02D KC2024 03 20.30620314 14 13.40 +24 43 01.0                VEF067H21
     K24F02D KC2024 03 20.30899914 14 14.17 +24 43 05.9                VEF067H21
     K24F02D KC2024 03 20.31179614 14 14.94 +24 43 11.4          20.9 GVEF067H21
     K24F02D KC2024 03 20.31319314 14 15.29 +24 43 14.0          21.1 GVEF067H21
     K24F02D KC2024 03 20.33128414 14 21.264+24 43 49.30         20.44GVEF067I52
     K24F02D KC2024 03 20.33300314 14 21.768+24 43 52.64         20.56GVEF067I52
     K24F02D KC2024 03 20.33473814 14 22.214+24 43 55.81         20.05GVEF067I52
     K24F02D KC2024 03 20.33647114 14 22.686+24 43 59.34         20.60GVEF067I52
     K24F02D KB2024 03 21.92211714 21 51.79 +25 29 28.4          19.6 GXEF067958
     K24F02D KB2024 03 21.93466914 21 55.24 +25 29 51.2          20.0 GXEF067958
     K24F02D KB2024 03 21.94718714 21 58.51 +25 30 11.6          19.8 GXEF067958
     K24F02D KB2024 03 22.09444414 22 38.035+25 34 24.88         19.5 VZEF067Y89
     K24F02D KB2024 03 22.10256414 22 40.411+25 34 36.97         20.7 VZEF067Y89
     K24F02D KB2024 03 22.11072314 22 42.836+25 34 50.46         19.6 VZEF067Y89
Observer details:
958 Observatoire de Dax.  Observer P. Dupouy.  Measurers P. Dupouy, P. Dupouy.
    0.50-m f/4.5 Reflector + CMO.
C95 SATINO Remote Observatory, Haute Provence.  Observers D. Husar, B.
    Haeusler, C. Gerhard.  Measurers C. Gerhard, D. Husar, B. Haeusler, C.
    Gerhard.  0.30-m f/5.7 reflector + CMO.
G96 Mt. Lemmon Survey.  Observer G. J. Leonard.  Measurers T. Beuden, V. F.
    Carvajal, D. Fay, J. B. Fazekas, D. C. Fuls, A. R. Gibbs, A. D. Grauer, H.
    Groeller, J. K. Hogan, R. A. Kowalski, S. M. Larson, G. J. Leonard, D.
    Rankin, R. L. Seaman, F. C. Shelly, K. W. Wierzchos, G. J. Leonard.  1.5-m
    reflector + 10K CCD.
H21 Astronomical Research Observatory, Westfield.  Observer R. Holmes.
    Measurers T. Linder, R. Holmes, L. Horn, R. Holmes.  0.76-m f/3.0
    astrograph + CCD.
H36 Sandlot Observatory, Scranton.  Observer G. Hug.  Measurers G. Hug, G.
    Hug.  0.56-m f/4.8 .56 meter Reflector + CCD.
I52 Steward Observatory, Mt. Lemmon Station.  Observer R. A. Kowalski.
    Measurers T. Beuden, V. F. Carvajal, D. Fay, J. B. Fazekas, D. C. Fuls, A.
    R. Gibbs, A. D. Grauer, H. Groeller, J. K. Hogan, R. A. Kowalski, S. M.
    Larson, G. J. Leonard, D. Rankin, R. L. Seaman, F. C. Shelly, K. W.
    Wierzchos, R. A. Kowalski.  1.0-m prime focus + CCD.
Y66 Two-Meter Twin Telescope, TTT2, Teide.  Observer M. R. Alarcon.
    Measurers M. Serra-Ricart, M. R. Alarcon.  0.80-m f/4.38 reflector +
    CMO.
Y89 Proxima Centauri Observatory, Valdin.  Observer R. Hahn.  Measurers R.
    Hahn, R. Hahn.  0.36-m f/2.0 reflector + CMO.
Orbital elements:
2024 FD2                                                 Earth MOID = 0.1919 AU
Epoch 2024 Mar. 31.0 TT = JDT 2460400.5                 MPC                     
M   2.06555              (2000.0)            P               Q                  
n   0.23084012     Peri.   33.23282     -0.99082240     +0.09726759             
a   2.6318544      Node   151.89439     -0.11653444     -0.96653025             
e   0.5591225      Incl.   11.49251     +0.06848872     -0.23739901             
P   4.27           H   22.14          G   0.15           U   9                  
Residuals in seconds of arc
240319 G96  0.1+  0.3+    240320 C95  0.6-  0.1-    240320 I52  0.4+  0.1-
240319 G96  0.2+  0.0     240320 Y66  0.1-  0.4+    240320 I52  0.0   0.2-
240319 G96  0.1-  0.1-    240320 Y66  0.1-  0.1-    240320 I52  0.0   0.1+
240319 H36  0.0   1.2-    240320 Y66  0.1+  0.3-    240321 958  0.1+  0.4-
240319 H36  0.8-  1.3+    240320 C95  0.5-  0.2-    240321 958  0.7+  0.8+
240319 I52  0.1+  0.1-    240320 H21  0.3-  0.5+    240321 958  0.9-  0.4-
240319 I52  0.1+  0.2-    240320 H21  0.2-  0.3+    240322 Y89 (1.6+  3.9+)
240319 I52  0.2+  0.0     240320 H21  0.1-  0.7+    240322 Y89 (4.9+  2.6+)
240319 I52  0.0   0.3-    240320 H21  0.5-  0.8+    240322 Y89 (8.7+  2.6+)
240320 C95  0.1+  0.2+    240320 I52  0.1-  0.3-
Ephemeris:
2024 FD2                 a,e,i = 2.63, 0.56, 11                  q = 1.1603
Date    TT    R. A. (2000) Decl.     Delta      r    Elong.  Phase     V
2024 02 21    11 53 41.8 +05 34 56   0.2438  1.2138   154.8    20.3    20.5
...
2024 03 07    13 05 41.7 +16 06 01   0.2051  1.1741   149.8    25.2    20.2
...
2024 03 15    13 47 43.0 +21 42 04   0.2027  1.1634   143.3    30.7    20.3
...
2024 03 21    14 17 30.6 +25 03 42   0.2080  1.1604   138.6    34.6    20.5
2024 03 22    14 22 11.2 +25 31 57   0.2094  1.1603   137.9    35.1    20.5
2024 03 23    14 26 45.6 +25 58 37   0.2109  1.1604   137.2    35.7    20.5
...
2024 03 29    14 51 48.5 +28 06 02   0.2222  1.1633   133.8    38.3    20.7
...
2024 04 06    15 18 05.6 +29 36 56   0.2419  1.1739   131.1    40.0    21.0
...
2024 04 21    15 46 46.6 +29 18 11   0.2884  1.2135   130.9    38.8    21.4
A. U. Tomatic                (C) Copyright 2024 MPC           M.P.E.C. 2024-F67
    
    
More information about the Iaude
mailing list